Location: Bakhuizen
(52.8696°N, 5.4575°E)
Time: 09:13:05
(UTC+00:00)

NOSS 3-4 (C) - Pass Details

Date: 11 May 2021
Orbit: 873 x 1339 km, 63.4° (Epoch: 06 May)

Event Time Altitude Azimuth Distance (km) Brightness Sun altitude
Rises 21:09:01 0° 313° (NW) 3,765 8.4 -12.4°
Reaches altitude 10° 21:11:30 10° 311° (NW) 2,872 7.3 -12.6°
Maximum altitude 21:18:18 70° 230° (SW) 1,209 3.9 -13.1°
Enters shadow 21:24:13 18° 150° (SSE) 2,610 5.1 -13.6°
